Location: Perryvale
(54.4667°N, 113.3833°W)
Time: 21:00:27
(UTC+00:00)

SR - Pass Details

Date: 26 May 2024
Orbit: 580 x 858 km, 66.7° (Epoch: 19 June)

Event Time Altitude Azimuth Distance (km) Brightness Sun altitude
Rises 07:22:16 0° 317° (NW) 2,936 ? -14.3°
Reaches altitude 10° 07:24:43 10° 325° (NW) 1,990 ? -14.3°
Maximum altitude 07:28:56 41° 36° (NE) 876 ? -14.3°
Drops below altitude 10° 07:32:58 10° 108° (ESE) 1,905 ? -14.3°
Sets 07:35:16 0° 116° (ESE) 2,796 ? -14.3°
